Find Kosmos-894

NORAD ID: 9846 Int'l Des: 1977-013 Owner: VMF Country: SU operational
LEOCIRCULARPOLAR

Live-Position

3D-Globus wird geladen...

Über Kosmos-894

Beschreibung wird geladen...

Nächste Überflüge

Passes for default location (London). Set your location on the main map for personalized predictions.

Höhenverlauf

Loading altitude history...

Zweizeiliger Elementsatz

1 9846U 77013A 26106.83140036 .00000075 00000-0 63162-4 0 9999
2 9846 82.9421 142.5685 0030360 22.6937 150.8274 13.74203683463745
Epoch: 16. Apr. 2026 • Age: 13 hours

Aktueller Status

Höhe 1019.1 km
Geschwindigkeit 7.34 km/s
Subsatellitenpunkt -81.50°S, 110.95°E
Typ other

Most Searched